[Date Prev][Date Next][Thread Prev][Thread Next] - [Date Index][Thread Index][Author Index]
2 Line ISS Keps 11-14
- Subject: [sarex] 2 Line ISS Keps 11-14
- From: "Dave Larsen PhD" <doc@xxxxxxxxxxx>
- Date: Wed, 14 Nov 2001 02:31:07 -0800
ISS
1 25544U 98067A 01318.16317772 .00077559 00000-0 90410-3 0 7210
2 25544 51.6416 54.4630 0009712 332.6533 99.7464 15.60913893170485
----
Via the sarex mailing list at AMSAT.ORG courtesy of AMSAT-NA.
To unsubscribe, send "unsubscribe sarex" to Majordomo@amsat.org
AMSAT Home